GW1353 Weather Reports


time (UTC)temp
C
wind
direction
speed
KPH
gust
KPH
rain 1hr
cm
rain 24hr
cm
rain mn
cm
humidity
%
barometer
mb
20260507133515 18 158 0.0 4.8 0.00 0.00 0.00 37 1026.8
20260507121752 16 196 4.8 9.7 0.00 0.00 0.00 40 1026.1
20260507120054 16 160 0.0 8.0 0.00 0.00 0.00 40 1026.2
20260507114553 16 157 1.6 9.7 0.00 0.00 0.00 40 1026.0
20260507113053 16 157 1.6 9.7 0.00 0.00 0.00 40 1026.2
20260507111549 16 133 1.6 8.0 0.00 0.00 0.00 39 1026.1
20260507110235 16 198 0.0 0.0 0.00 0.00 0.00 39 1026.2
20260507104552 16 0 0.0 1.6 0.00 0.00 0.00 38 1026.0
20260507103047 16 0 0.0 3.2 0.00 0.00 0.00 38 1025.9
20260507101553 16 209 3.2 6.4 0.00 0.00 0.00 38 1026.2
20260507100115 16 0 0.0 6.4 0.00 0.00 0.00 38 1025.8
20260507094551 17 273 3.2 12.9 0.00 0.00 0.00 37 1025.7
20260507093055 17 253 4.8 11.3 0.00 0.00 0.00 37 1025.5
20260507091548 17 256 3.2 9.7 0.00 0.00 0.00 37 1025.4
20260507090049 17 291 3.2 14.5 0.00 0.00 0.00 37 1025.6
20260507084549 17 264 4.8 11.3 0.00 0.00 0.00 37 1025.5
20260507083050 17 260 4.8 11.3 0.00 0.00 0.00 37 1025.7
20260507081550 17 257 4.8 12.9 0.00 0.00 0.00 36 1025.9
20260507080111 17 262 4.8 11.3 0.00 0.00 0.00 36 1026.1
20260507074547 17 263 4.8 12.9 0.00 0.00 0.00 36 1026.3
20260507073050 17 282 6.4 12.9 0.00 0.00 0.00 35 1026.4
20260507071607 17 241 6.4 14.5 0.00 0.00 0.00 35 1026.6
20260507070057 17 252 4.8 14.5 0.00 0.00 0.00 35 1026.5
20260507064552 17 246 6.4 16.1 0.00 0.00 0.00 35 1026.6
20260507063056 18 360 8.0 16.1 0.00 0.00 0.00 34 1026.8
20260507061556 18 360 4.8 12.9 0.00 0.00 0.00 34 1026.8
20260507060051 18 360 6.4 14.5 0.00 0.00 0.00 34 1026.9
20260507054550 18 360 6.4 14.5 0.00 0.00 0.00 33 1026.9
20260507053117 18 360 6.4 12.9 0.00 0.00 0.00 32 1026.9
20260507051601 18 360 1.6 9.7 0.00 0.00 0.00 31 1026.9
20260507050050 19 360 3.2 8.0 0.00 0.00 0.00 30 1027.1
20260507044555 20 360 3.2 12.9 0.00 0.00 0.00 30 1027.0
20260507043053 20 360 4.8 12.9 0.00 0.00 0.00 29 1027.0
20260507041552 20 360 3.2 19.3 0.00 0.00 0.00 28 1026.9
20260507040054 20 360 4.8 19.3 0.00 0.00 0.00 27 1026.7
20260507034549 20 360 9.7 20.9 0.00 0.00 0.00 26 1026.6
20260507033051 20 360 4.8 12.9 0.00 0.00 0.00 25 1026.5
20260507031556 21 360 4.8 12.9 0.00 0.00 0.00 25 1026.3
20260507030051 21 360 6.4 14.5 0.00 0.00 0.00 24 1026.2
20260507024601 21 360 6.4 19.3 0.00 0.00 0.00 24 1025.9
20260507023051 21 360 8.0 20.9 0.00 0.00 0.00 24 1025.7
20260507021551 22 360 8.0 17.7 0.00 0.00 0.00 23 1025.5
20260507020049 22 360 11.3 19.3 0.00 0.00 0.00 22 1025.3
20260507014601 23 360 8.0 17.7 0.00 0.00 0.00 21 1025.2
20260507013051 23 360 8.0 24.1 0.00 0.00 0.00 21 1025.0
20260507011549 23 360 11.3 30.6 0.00 0.00 0.00 20 1024.7
20260507004601 25 360 16.1 27.4 0.00 0.00 0.00 19 1024.4
20260507003056 25 360 17.7 29.0 0.00 0.00 0.00 18 1024.4
20260507001555 25 360 17.7 33.8 0.00 0.00 0.00 16 1024.2
20260507000054 26 360 19.3 33.8 0.00 0.00 0.00 17 1024.0
20260506234554 26 360 17.7 35.4 0.00 0.00 0.00 16 1023.9
20260506233056 26 206 16.1 33.8 0.00 0.00 0.00 16 1023.9
20260506231553 26 360 19.3 40.2 0.00 0.00 0.00 17 1023.9
20260506230049 26 240 20.9 38.6 0.00 0.00 0.00 16 1023.9
20260506224553 27 217 11.3 30.6 0.00 0.00 0.00 15 1023.8
20260506223052 26 235 20.9 43.5 0.00 0.00 0.00 16 1024.0
20260506221555 26 225 17.7 33.8 0.00 0.00 0.00 15 1023.8
20260506220052 26 242 14.5 33.8 0.00 0.00 0.00 16 1024.0
20260506214602 26 223 16.1 53.1 0.00 0.00 0.00 16 1024.0
20260506213050 26 205 9.7 32.2 0.00 0.00 0.00 16 1024.1
20260506211700 26 252 19.3 43.5 0.00 0.00 0.00 15 1024.3
20260506210051 26 197 12.9 27.4 0.00 0.00 0.00 16 1024.4
20260506204552 26 225 11.3 38.6 0.00 0.00 0.00 16 1024.6
20260506203116 26 239 14.5 29.0 0.00 0.00 0.00 16 1024.7
20260506201552 26 194 17.7 30.6 0.00 0.00 0.00 15 1025.0
20260506200103 26 360 17.7 37.0 0.00 0.00 0.00 16 1025.2
20260506194605 26 205 17.7 35.4 0.00 0.00 0.00 16 1025.5
20260506193056 25 205 12.9 27.4 0.00 0.00 0.00 16 1025.9
20260506191615 25 360 12.9 35.4 0.00 0.00 0.00 16 1026.2
20260506184552 25 360 11.3 27.4 0.00 0.00 0.00 15 1026.4
20260506183059 24 360 14.5 32.2 0.00 0.00 0.00 16 1026.8
20260506181601 24 360 14.5 33.8 0.00 0.00 0.00 15 1026.8
20260506164551 22 360 11.3 24.1 0.00 0.00 0.00 15 1027.1